Location: Ferma
(41.9500°N, 44.5167°E)
Time: 04:55:26
(UTC+00:00)

NOSS 2-3 (D) - Pass Details

Date: 02 June 2022
Orbit: 536 x 1674 km, 63.3° (Epoch: 02 June)

Event Time Altitude Azimuth Distance (km) Brightness Sun altitude
Rises 20:59:16 0° 305° (NW) 3,810 8.1 -25.8°
Reaches altitude 10° 21:02:55 10° 284° (WNW) 3,074 7.2 -25.8°
Maximum altitude 21:07:02 16° 250° (WSW) 2,875 6.7 -25.8°
Enters shadow 21:07:44 16° 244° (WSW) 2,921 6.7 -25.8°
